Starlink 31646

operational
NORAD ID: 59265 Int'l Des: 2024-050 Owner: SPXS Country: US Constellation: starlink
LEOCIRCULAR

关于 Starlink 31646

正在加载描述...

实时位置

正在加载3D地球...

即将过境

高度历史

Altitude vs Time

uPlot chart will show altitude changes over time

两行轨道根数

1 59265U 24050M 25352.88040768 .00007667 00000-0 27082-3 0 9994
2 59265 53.1594 196.5341 0000427 155.2038 204.8983 15.30186942 98170
Epoch: Dec 18, 2025 • Age: 39 hours

当前状态

高度 492.1 km
速度 7.62 km/s
星下点 -48.81°S, 138.91°W
发射日期 Mar 19, 2024
运行时间 1.7 years
类型 internet

技术详情

分类 Payload
质量 730.00 kg
干质量 700.00 kg
总质量 730.00 kg
长度 0.30 m
直径 4.10 m
跨度 29.00 m
形状 Box + pan
制造商 SPXS
平台类型 Starlink V2M
阶段状态 In Orbit
所有者/国家 SPXS/US

大型星座

Loading constellations...